Regional Weather Roundup
Issued by NWS Mobile, AL

Home | Current Version | Previous Version | Text Only | Print | Product List | Glossary On
Versions: 1 2 3 4 5 6 7 8 9 10 11 12 13 14 15 16 17 18 19 20 21 22 23 24 25 26 27 28 29 30 31 32 33 34 35 36 37 38 39 40 41 42 43 44 45 46 47 48 49 50
000
ASUS44 KMOB 072016
RWRMOB
REGIONAL WEATHER ROUNDUP
NATIONAL WEATHER SERVICE MOBILE AL
300 PM CDT TUE JUL 07 2015

ALZ061>064-072100-
COASTAL ALABAMA


CITY           SKY/WX    TMP DP  RH WIND       PRES   REMARKS
MOBILE REG APT MOSUNNY   90  72  55 S10       30.14S HX  97
BROOKLEY FIELD MOSUNNY   90  74  59 S10       30.13F HX  99
GULF SHORES    CLEAR     89  73  58 SW7       30.13S HX  97

$$

ALZ051>060-072100-
INTERIOR SOUTHWEST AND SOUTH CENTRAL ALABAMA


CITY           SKY/WX    TMP DP  RH WIND       PRES   REMARKS
ANDALUSIA/OPP  MOSUNNY   96  68  39 CALM      30.13F HX 101
EVERGREEN      MOSUNNY   92  71  50 CALM      30.13F HX  98
FLORALA        PTCLDY    91  69  48 SW5       30.14F HX  96
GREENVILLE     FAIR      89  70  53 W5        30.13F

$$

FLZ001>006-072100-
WESTERN FLORIDA PANHANDLE


CITY           SKY/WX    TMP DP  RH WIND       PRES   REMARKS
CRESTVIEW      MOSUNNY   94  68  42 VRB3      30.12F HX  98
DESTIN         SUNNY     88  76  67 VRB7      30.12F HX  99
DUKE FIELD     MOSUNNY   91  74  56 S12       30.12F THUNDER HX 100
MARY ESTHER    MOSUNNY   88  75  65 S8        30.12F HX  97
MILTON         PTCLDY    90  74  59 VRB6      30.12F HX  99
PENSACOLA      SUNNY     89  74  60 SW10      30.12F HX  98
NAS PENSACOLA  MOSUNNY   88  75  65 SW12      30.12F HX  97
VALPARAISO     MOSUNNY   88  75  66 S12       30.12F HX  98

$$

...MARINE OBSERVATIONS...

STATION/POSITION TIME  SKY/WX   TEMP    WIND        PRES    VSBY
                                AIR SEA DIR/SP/G
                 (UTC)          (F)     (DEG/KT/KT) (MB)    (MI)
PASCAGOULA       1900            85     180/  8/ 10 1020.7F
PETIT BOIS ISL   1900            87     180/  8/  9 1021.3F
E DAUPHIN ISLAND 2000            85     180/  8/  9 1020.2F
MIDDLE BAY LIGHT 1900            83     200/  9     1020.3F
USCG MOBILE BAY  1900            86 84  160/ 10/ 13 1019.5F
STATE DOCKS      1900            86 86              1020.5F
MEAHER PARK      2000            86     180/ 12     1019.3F
FORT MORGAN      1900            85     200/  7/  8 1020.3F
12 S ORANGE BCH  1950            85 87  180/  6/  8 1019.7F
WVE H/P(F/S)=  2/ 5

PENSACOLA BAY    1900            89 86  200/  5/  6 1021.0F
64 S DAUPHIN ISL 1950            85 89  150/  8/ 10 1020.7F
WVE H/P(F/S)=  2/ 6

67 S FORT MORGAN 1930            84     150/  8     1020.7F
115 SE PENSACOLA 1950            84 87   70/  6/  8 1020.9F
WVE H/P(F/S)=  1/ 6

MID GULF/42001   1950            84 86  150/ 12/ 14 1019.6F
WVE H/P(F/S)=  3/ 7

EAST GULF/42003  1950            85 86   70/  8/  8 1019.9F
WVE H/P(F/S)=  2/ 8


$$

...NEARBY LOCATIONS

CITY           SKY/WX    TMP DP  RH WIND       PRES   REMARKS
GULFPORT       MOSUNNY   88  75  65 S10       30.13S HX  97
BILOXI         SUNNY     88  76  67 SW10      30.13F HX 100
PASCAGOULA     SUNNY     89  74  60 SW9       30.13F HX  98
HATTIESBURG    MOSUNNY   92  71  50 SW10      30.11F HX  98
LAUREL         MOSUNNY   90  55  31 S7        30.13F
MERIDIAN       MOSUNNY   91  73  55 S9        30.10F HX  99
MERIDIAN NAS   MOSUNNY   91  71  51 SW7       30.11F HX  97
MONTGOMERY     MOSUNNY   92  70  48 SW7       30.12F HX  97
MAXWELL AFB    SUNNY     91  72  53 VRB3      30.11F HX  98
TROY           SUNNY     91  70  49 W3        30.14F HX  96
FORT RUCKER    SUNNY     92  70  48 W5        30.11F HX  97
DALEVILLE      SUNNY     91  71  51 VRB2      30.13F HX  97
DOTHAN         PTSUNNY   90  71  53 VRB3      30.16F HX  96

$$

...OTHER SURROUNDING LOCATIONS...

CITY           SKY/WX    TMP DP  RH WIND       PRES   REMARKS
BIRMINGHAM     MOSUNNY   91  70  49 W8        30.14F HX  96
TUSCALOOSA     MOSUNNY   92  71  50 SW6       30.11F HX  98
COLUMBUS GA    MOSUNNY   90  68  48 CALM      30.12F
PANAMA CITY    NOT AVBL
TALLAHASSEE    MOSUNNY   94  69  44 NE6       30.11F HX  99
BATON ROUGE    PTSUNNY   90  74  59 S10       30.08F HX  99
NEW ORLEANS    MOSUNNY   92  75  57 SE10      30.10F HX 103
SLIDELL        MOSUNNY   92  76  59 S12G22    30.10F HX 104
JACKSON        MOSUNNY   92  73  53 S10       30.08F HX 100
MCCOMB         SUNNY     90  76  63 S14       30.11F HX 101

$$

...SURROUNDING MARINE OBSERVATIONS...

STATION/POSITION TIME  SKY/WX   TEMP    WIND        PRES    VSBY
                                AIR SEA DIR/SP/G
                 (UTC)          (F)     (DEG/KT/KT) (MB)    (MI)
WAVELAND         1900            85 86  160/ 10/ 12 1020.8F
PASCAGOULA RGN A 1900            88     190/  7/ 10 1020.3F
PASCAGOULA PORT  1900               83                N/A
GRAND ISLE       1900            87 87  160/  7/ 10 1020.6F
SOUTHWEST PASS   2000            85     160/  9/ 10 1020.5F
PILOT STATION E  1900            89 83  150/  5/ 13 1020.9F
SHELL BEACH      1900            88 85  160/ 12/ 15 1019.6F
PANAMA CITY      1900            84 86  230/ 11/ 12 1020.0F
APALACHICOLA     1900            86 86  230/  8/ 10 1020.5F
TYNDALL TOWER C  2000            83     190/  4/  5 1020.2F
S APLCHCLA/42036 1950            84 87   60/  4/  8 1020.5F
WVE H/P(F/S)=  1/10


$$



USA.gov is the U.S. government's official web portal to all federal, state and local government web resources and services.